Location: ??????
(41.3164°N, 22.6615°E)
Time: 23:08:37
(UTC+00:00)

Cosmos 724 - Pass Details

Date: 16 October 2021
Orbit: 857 x 938 km, 65.6° (Epoch: 26 November)

Event Time Altitude Azimuth Distance (km) Brightness Sun altitude
Rises 17:34:20 0° 331° (NNW) 3,531 7.9 -20.9°
Reaches altitude 10° 17:36:56 10° 335° (NNW) 2,574 7.1 -21.4°
Maximum altitude 17:42:48 57° 54° (NE) 1,031 4.3 -22.5°
Enters shadow 17:43:52 50° 94° (E) 1,114 4.4 -22.7°
